EW6390 Weather Reports


time (UTC)temp
F
wind
direction
speed
knots
gust
knots
rain 1hr
in
rain 24hr
in
rain mn
in
humidity
%
barometer
mb
20260505183717 79 227 1.7 9.6 0.00 0.00 0.00 35 1015.0
20260505183337 79 219 1.7 6.1 0.00 0.00 0.00 32 1015.2
20260505182838 79 229 2.6 7.0 0.00 0.00 0.00 34 1015.3
20260505182336 79 231 3.5 11.3 0.00 0.00 0.00 32 1015.4
20260505181216 79 258 2.6 11.3 0.00 0.00 0.00 32 1015.7
20260505180717 80 248 2.6 8.7 0.00 0.00 0.00 32 1015.8
20260505180222 79 189 3.5 10.4 0.00 0.00 0.00 33 1016.0
20260505180217 79 257 2.6 10.4 0.00 0.00 0.00 33 1015.9
20260505175217 79 273 2.6 7.8 0.00 0.00 0.00 32 1015.9
20260505174717 79 118 2.6 7.8 0.00 0.00 0.00 33 1015.9
20260505174217 79 226 2.6 9.6 0.00 0.00 0.00 35 1015.9
20260505173718 79 200 2.6 9.6 0.00 0.00 0.00 33 1016.0
20260505173218 79 202 2.6 9.6 0.00 0.00 0.00 33 1016.0
20260505172718 79 210 2.6 9.6 0.00 0.00 0.00 36 1016.0
20260505172216 79 250 1.7 6.1 0.00 0.00 0.00 34 1016.0
20260505171716 79 256 1.7 5.2 0.00 0.00 0.00 34 1016.0
20260505171218 78 274 2.6 6.1 0.00 0.00 0.00 36 1015.9
20260505170716 78 167 2.6 6.1 0.00 0.00 0.00 33 1015.9
20260505170217 77 236 2.6 6.1 0.00 0.00 0.00 35 1015.9
20260505165720 76 286 2.6 9.6 0.00 0.00 0.00 37 1016.1
20260505165715 77 229 1.7 6.1 0.00 0.00 0.00 36 1015.9
20260505164712 76 234 2.6 9.6 0.00 0.00 0.00 36 1016.2
20260505164213 75 234 1.7 7.8 0.00 0.00 0.00 37 1016.2
20260505163714 76 253 1.7 6.1 0.00 0.00 0.00 37 1016.2
20260505163211 76 259 1.7 5.2 0.00 0.00 0.00 39 1016.1
20260505162832 76 122 2.6 7.8 0.00 0.00 0.00 41 1016.3
20260505162716 76 224 1.7 6.1 0.00 0.00 0.00 38 1016.1
20260505162710 76 239 1.7 6.1 0.00 0.00 0.00 37 1016.2
20260505161208 76 243 2.6 7.8 0.00 0.00 0.00 43 1016.4
20260505160706 75 217 2.6 7.0 0.00 0.00 0.00 40 1016.5
20260505160206 76 245 2.6 7.0 0.00 0.00 0.00 39 1016.5
20260505153204 75 229 1.7 6.1 0.00 0.00 0.00 45 1016.7
20260505152704 74 238 1.7 5.2 0.00 0.00 0.00 45 1016.8
20260505152204 74 236 1.7 6.1 0.00 0.00 0.00 48 1016.8
20260505151702 74 249 1.7 6.1 0.00 0.00 0.00 48 1016.8
20260505151203 73 238 1.7 5.2 0.00 0.00 0.00 48 1016.8
20260505150701 73 203 0.9 5.2 0.00 0.00 0.00 48 1016.8
20260505150208 72 236 0.9 5.2 0.00 0.00 0.00 51 1016.8
20260505150202 73 229 0.9 5.2 0.00 0.00 0.00 50 1016.8
20260505130201 65 218 0.9 3.5 0.00 0.00 0.00 68 1016.2
20260505130155 65 217 1.7 5.2 0.00 0.00 0.00 67 1016.3
20260505124653 65 229 0.0 4.3 0.00 0.00 0.00 68 1016.2
20260505124152 64 218 0.0 4.3 0.00 0.00 0.00 70 1016.2
20260505123652 64 223 0.9 2.6 0.00 0.00 0.00 70 1016.1
20260505123151 63 247 0.0 2.6 0.00 0.00 0.00 70 1016.2
20260505122652 63 243 0.0 1.7 0.00 0.00 0.00 71 1016.2
20260505122153 62 217 0.0 2.6 0.00 0.00 0.00 73 1016.1
20260505121652 61 231 0.0 4.3 0.00 0.00 0.00 74 1016.0
20260505121153 61 243 0.0 4.3 0.00 0.00 0.00 74 1016.0
20260505120658 59 222 0.0 1.7 0.00 0.00 0.00 78 1015.9
20260505120652 60 222 0.0 0.0 0.00 0.00 0.00 76 1016.0
20260505115653 58 222 0.0 1.7 0.00 0.00 0.00 80 1015.8
20260505115151 57 117 0.0 0.9 0.00 0.00 0.00 84 1015.7
20260505114653 55 228 0.0 0.9 0.00 0.00 0.00 85 1015.7
20260505114155 54 228 0.0 0.0 0.00 0.00 0.00 87 1015.8
20260505114151 54 228 0.0 0.0 0.00 0.00 0.00 86 1015.8
20260505113150 53 228 0.0 0.0 0.00 0.00 0.00 87 1015.9
20260505112649 53 228 0.0 2.6 0.00 0.00 0.00 87 1015.9
20260505112147 53 228 0.0 2.6 0.00 0.00 0.00 88 1015.8
20260505111648 52 264 0.0 0.9 0.00 0.00 0.00 89 1015.8
20260505111148 51 229 0.0 0.9 0.00 0.00 0.00 89 1015.7
20260505110649 51 229 0.0 0.0 0.00 0.00 0.00 89 1015.7
20260505110149 50 229 0.0 0.0 0.00 0.00 0.00 88 1015.8
20260505102147 50 229 0.0 0.0 0.00 0.00 0.00 87 1015.5
20260505101646 50 229 0.0 0.0 0.00 0.00 0.00 86 1015.5
20260505101151 50 229 0.0 0.0 0.00 0.00 0.00 85 1015.5
20260505101147 50 229 0.0 0.0 0.00 0.00 0.00 86 1015.5
20260505100145 50 229 0.0 0.0 0.00 0.00 0.00 86 1015.5
20260505095645 50 229 0.0 0.0 0.00 0.00 0.00 85 1015.5
20260505095147 50 229 0.0 0.0 0.00 0.00 0.00 85 1015.5
20260505094651 50 229 0.0 0.0 0.00 0.00 0.00 85 1015.4
20260505094647 50 229 0.0 0.0 0.00 0.00 0.00 85 1015.4
20260505093641 50 229 0.0 0.0 0.00 0.00 0.00 84 1015.5
20260505093142 50 229 0.0 0.0 0.00 0.00 0.00 83 1015.4
20260505092641 51 229 0.0 0.0 0.00 0.00 0.00 83 1015.4
20260505092140 51 229 0.0 0.0 0.00 0.00 0.00 83 1015.4
20260505091643 51 229 0.0 0.0 0.00 0.00 0.00 82 1015.3
20260505091639 51 229 0.0 0.0 0.00 0.00 0.00 83 1015.4
20260505090637 51 229 0.0 0.0 0.00 0.00 0.00 82 1015.3
20260505090135 51 229 0.0 0.0 0.00 0.00 0.00 81 1015.3
20260505085636 52 229 0.0 0.0 0.00 0.00 0.00 81 1015.3
20260505085135 52 229 0.0 0.0 0.00 0.00 0.00 81 1015.2
20260505084637 52 229 0.0 0.0 0.00 0.00 0.00 81 1015.1
20260505084136 52 229 0.0 0.9 0.00 0.00 0.00 80 1015.1
20260505083637 53 229 0.0 0.9 0.00 0.00 0.00 80 1015.1
20260505083136 52 229 0.0 0.9 0.00 0.00 0.00 81 1015.0
20260505082641 51 299 0.0 0.0 0.00 0.00 0.00 81 1015.1
20260505082637 51 299 0.0 0.9 0.00 0.00 0.00 82 1015.0
20260505081636 51 299 0.0 0.0 0.00 0.00 0.00 81 1015.1
20260505081135 51 299 0.0 0.0 0.00 0.00 0.00 81 1015.1
20260505080637 51 299 0.0 0.0 0.00 0.00 0.00 80 1015.0
20260505080136 52 299 0.0 0.0 0.00 0.00 0.00 80 1015.0
20260505075635 52 299 0.0 0.0 0.00 0.00 0.00 80 1014.9
20260505075135 53 299 0.0 0.0 0.00 0.00 0.00 79 1014.9
20260505074636 53 299 0.0 0.0 0.00 0.00 0.00 79 1014.9
20260505074135 53 299 0.0 0.0 0.00 0.00 0.00 78 1014.9
20260505073637 52 299 0.0 0.9 0.00 0.00 0.00 80 1014.8
20260505073136 52 299 0.0 0.9 0.00 0.00 0.00 81 1014.8
20260505072637 51 13 0.0 0.9 0.00 0.00 0.00 81 1014.9
20260505072141 51 13 0.0 0.0 0.00 0.00 0.00 81 1014.9
20260505072135 51 13 0.0 0.0 0.00 0.00 0.00 81 1014.9
20260505071134 51 13 0.0 0.0 0.00 0.00 0.00 80 1014.9
20260505070637 52 13 0.0 0.0 0.00 0.00 0.00 80 1014.8
20260505070631 52 13 0.0 0.0 0.00 0.00 0.00 80 1014.8
20260505065633 52 13 0.0 0.0 0.00 0.00 0.00 79 1014.8
20260505065138 53 13 0.0 0.0 0.00 0.00 0.00 78 1014.6
20260505065132 52 13 0.0 0.0 0.00 0.00 0.00 78 1014.6
20260505064131 53 13 0.0 0.0 0.00 0.00 0.00 77 1014.6
20260505063632 53 13 0.0 0.0 0.00 0.00 0.00 76 1014.8
20260505063131 54 13 0.0 0.0 0.00 0.00 0.00 76 1014.6
20260505062637 55 13 0.0 0.9 0.00 0.00 0.00 74 1014.6
20260505062633 54 13 0.0 0.0 0.00 0.00 0.00 75 1014.6
20260505061630 55 13 0.0 0.9 0.00 0.00 0.00 71 1014.8
20260505061125 55 13 0.0 0.9 0.00 0.00 0.00 74 1014.8
20260505060626 55 13 0.0 0.9 0.00 0.00 0.00 74 1014.8
20260505060128 54 13 0.0 0.9 0.00 0.00 0.00 73 1014.8
20260505060124 55 13 0.0 0.9 0.00 0.00 0.00 74 1014.8
20260505055122 53 229 0.0 0.0 0.00 0.00 0.00 75 1014.6
20260505054622 53 229 0.0 0.0 0.00 0.00 0.00 75 1014.6
20260505054123 53 229 0.0 0.0 0.00 0.00 0.00 74 1014.6
20260505053621 54 229 0.0 0.0 0.00 0.00 0.00 74 1014.6
20260505053121 54 229 0.0 0.0 0.00 0.00 0.00 74 1014.6
20260505052622 54 229 0.0 0.0 0.00 0.00 0.00 74 1014.8
20260505052127 54 229 0.0 0.0 0.00 0.00 0.00 73 1014.9
20260505052123 54 229 0.0 0.0 0.00 0.00 0.00 73 1014.9
20260505051122 54 229 0.0 0.0 0.00 0.00 0.00 73 1014.9
20260505050621 55 229 0.0 0.0 0.00 0.00 0.00 73 1015.0
20260505050120 55 229 0.0 0.0 0.00 0.00 0.00 73 1015.0
20260505041117 57 229 0.0 0.0 0.00 0.00 0.00 69 1015.0
20260505040615 57 229 0.0 0.0 0.00 0.00 0.00 69 1015.1
20260505040115 57 229 0.0 0.0 0.00 0.00 0.00 68 1015.1
20260505035616 57 229 0.0 0.0 0.00 0.00 0.00 68 1015.1
20260505035116 57 229 0.0 0.0 0.00 0.00 0.00 68 1015.1
20260505034615 57 229 0.0 0.0 0.00 0.00 0.00 67 1015.1
20260505034121 58 229 0.0 0.0 0.00 0.00 0.00 66 1015.1
20260505034116 58 229 0.0 0.0 0.00 0.00 0.00 66 1015.1
20260505033115 58 229 0.0 0.0 0.00 0.00 0.00 66 1015.1
20260505032622 58 229 0.0 0.0 0.00 0.00 0.00 67 1015.2
20260505032615 58 229 0.0 0.0 0.00 0.00 0.00 66 1015.2
20260505031615 58 229 0.0 0.0 0.00 0.00 0.00 67 1015.2
20260505031114 58 229 0.0 0.0 0.00 0.00 0.00 64 1015.2
20260505030618 59 230 0.0 0.0 0.00 0.00 0.00 66 1015.2
20260505030613 58 230 0.0 0.0 0.00 0.00 0.00 65 1015.1
20260505025613 59 230 0.0 0.0 0.00 0.00 0.00 66 1015.2
20260505025114 59 230 0.0 0.0 0.00 0.00 0.00 65 1015.1
20260505024613 59 230 0.0 0.0 0.00 0.00 0.00 64 1015.1
20260505024113 60 230 0.0 0.0 0.00 0.00 0.00 62 1015.1
20260505023614 60 230 0.0 0.0 0.00 0.00 0.00 62 1015.1
20260505023118 60 230 0.0 0.0 0.00 0.00 0.00 60 1015.0
20260505023113 60 230 0.0 0.0 0.00 0.00 0.00 60 1015.1
20260505022107 61 230 0.0 0.0 0.00 0.00 0.00 59 1014.9
20260505021608 61 230 0.0 0.0 0.00 0.00 0.00 58 1014.9
20260505021107 62 230 0.0 0.0 0.00 0.00 0.00 56 1014.8
20260505020607 62 230 0.0 0.0 0.00 0.00 0.00 57 1014.8
20260505020107 62 230 0.0 0.0 0.00 0.00 0.00 54 1014.8
20260505015609 62 230 0.0 0.0 0.00 0.00 0.00 54 1014.8
20260505015107 62 230 0.0 0.9 0.00 0.00 0.00 54 1014.6
20260505014612 63 230 0.0 0.0 0.00 0.00 0.00 55 1014.6
20260505014607 63 230 0.0 0.9 0.00 0.00 0.00 54 1014.6
20260505013607 63 230 0.0 0.0 0.00 0.00 0.00 52 1014.5
20260505013105 64 230 0.0 0.0 0.00 0.00 0.00 52 1014.5
20260505012606 64 230 0.0 0.0 0.00 0.00 0.00 51 1014.4
20260505012104 64 230 0.0 0.0 0.00 0.00 0.00 50 1014.3
20260505011606 65 230 0.0 0.0 0.00 0.00 0.00 50 1014.3
20260505011104 65 230 0.0 0.0 0.00 0.00 0.00 48 1014.3
20260505010610 66 230 0.0 0.0 0.00 0.00 0.00 46 1014.3
20260505010605 65 230 0.0 0.0 0.00 0.00 0.00 48 1014.2
20260505005606 66 230 0.0 0.0 0.00 0.00 0.00 47 1014.2
20260505005105 67 230 0.0 0.0 0.00 0.00 0.00 47 1014.2
20260505004605 67 230 0.0 0.0 0.00 0.00 0.00 47 1014.2
20260505004108 69 230 0.0 0.0 0.00 0.00 0.00 43 1014.1
20260505004103 68 230 0.0 0.0 0.00 0.00 0.00 45 1014.1
20260505003103 69 230 0.0 0.0 0.00 0.00 0.00 39 1014.0
20260505002604 70 230 0.0 0.9 0.00 0.00 0.00 37 1014.0
20260505002105 71 230 0.0 0.9 0.00 0.00 0.00 37 1014.0
20260505001603 71 230 0.0 0.9 0.00 0.00 0.00 36 1014.0
20260505001108 72 236 0.0 1.7 0.00 0.00 0.00 35 1014.0
20260505001103 72 230 0.0 0.9 0.00 0.00 0.00 35 1013.9
20260504235603 73 241 0.0 2.6 0.00 0.00 0.00 34 1013.9
20260504235103 73 253 0.9 2.6 0.00 0.00 0.00 33 1013.8
20260504234602 74 242 0.9 5.2 0.00 0.00 0.00 34 1013.7
20260504234103 74 243 1.7 6.1 0.00 0.00 0.00 34 1013.7
20260504233608 74 242 1.7 6.1 0.00 0.00 0.00 34 1013.6
20260504233602 74 230 1.7 6.1 0.00 0.00 0.00 33 1013.7
20260504232602 75 236 2.6 6.1 0.00 0.00 0.00 33 1013.6
20260504232102 75 238 2.6 7.0 0.00 0.00 0.00 32 1013.6
20260504231603 75 157 1.7 7.0 0.00 0.00 0.00 31 1013.5
20260504231102 76 141 0.9 5.2 0.00 0.00 0.00 31 1013.5
20260504230604 76 229 1.7 4.3 0.00 0.00 0.00 31 1013.5
20260504230559 76 229 0.9 3.5 0.00 0.00 0.00 32 1013.4
20260504225559 76 235 0.9 4.3 0.00 0.00 0.00 31 1013.4
20260504225058 76 238 1.7 4.3 0.00 0.00 0.00 31 1013.4
20260504224559 76 92 1.7 5.2 0.00 0.00 0.00 30 1013.4
20260504224059 76 237 1.7 6.1 0.00 0.00 0.00 30 1013.4
20260504223559 76 216 1.7 6.1 0.00 0.00 0.00 29 1013.5
20260504223059 77 233 0.9 5.2 0.00 0.00 0.00 30 1013.5
20260504222600 77 252 1.7 6.1 0.00 0.00 0.00 29 1013.6
20260504222105 77 184 1.7 7.0 0.00 0.00 0.00 27 1013.6
20260504222100 77 248 1.7 7.0 0.00 0.00 0.00 27 1013.6
20260504221721 77 269 1.7 6.1 0.00 0.00 0.00 27 1013.6
20260504220604 77 219 1.7 6.1 0.00 0.00 0.00 27 1013.6
20260504220559 77 216 1.7 6.1 0.00 0.00 0.00 27 1013.6
20260504215559 77 332 1.7 6.1 0.00 0.00 0.00 28 1013.5
20260504215100 77 167 1.7 7.0 0.00 0.00 0.00 27 1013.6
20260504214559 77 159 1.7 7.0 0.00 0.00 0.00 26 1013.4
20260504214058 77 247 1.7 4.3 0.00 0.00 0.00 27 1013.4
20260504213559 77 231 1.7 6.1 0.00 0.00 0.00 28 1013.4
20260504213058 77 233 1.7 6.1 0.00 0.00 0.00 27 1013.5
20260504212559 77 238 1.7 6.1 0.00 0.00 0.00 26 1013.5
20260504212059 77 241 1.7 6.1 0.00 0.00 0.00 25 1013.5
20260504211559 77 230 1.7 5.2 0.00 0.00 0.00 26 1013.5
20260504211100 78 243 1.7 7.0 0.00 0.00 0.00 27 1013.5
20260504210557 77 204 0.9 7.8 0.00 0.00 0.00 28 1013.5
20260504210056 78 231 0.9 7.8 0.00 0.00 0.00 26 1013.6
20260504205557 78 222 0.9 3.5 0.00 0.00 0.00 28 1013.6
20260504205058 78 222 1.7 5.2 0.00 0.00 0.00 28 1013.7
20260504204558 78 350 0.9 5.2 0.00 0.00 0.00 28 1013.7
20260504204054 78 117 0.9 4.3 0.00 0.00 0.00 28 1013.7
20260504203553 78 259 1.7 4.3 0.00 0.00 0.00 27 1013.8
20260504203057 78 243 1.7 5.2 0.00 0.00 0.00 26 1013.8
20260504203051 78 215 1.7 4.3 0.00 0.00 0.00 26 1013.8
20260504202711 78 203 2.6 6.1 0.00 0.00 0.00 27 1013.8
20260504201553 79 53 0.9 6.1 0.00 0.00 0.00 27 1013.9
20260504201548 79 104 1.7 6.1 0.00 0.00 0.00 26 1013.9
20260504201209 79 233 1.7 6.1 0.00 0.00 0.00 27 1013.9
20260504200044 80 237 0.9 3.5 0.00 0.00 0.00 24 1013.9
20260504195544 80 40 0.9 4.3 0.00 0.00 0.00 26 1014.0
20260504195044 80 192 0.9 4.3 0.00 0.00 0.00 26 1014.1
20260504194550 78 277 1.7 4.3 0.00 0.00 0.00 26 1014.3
20260504194544 79 62 0.9 4.3 0.00 0.00 0.00 27 1014.3
20260504194042 79 103 2.6 7.0 0.00 0.00 0.00 25 1014.3
20260504193040 79 274 1.7 7.0 0.00 0.00 0.00 24 1014.4
20260504192541 80 228 0.9 3.5 0.00 0.00 0.00 26 1014.4
20260504192040 80 120 0.9 3.5 0.00 0.00 0.00 26 1014.6
20260504191545 80 240 0.9 4.3 0.00 0.00 0.00 23 1014.8
20260504191540 80 10 0.9 4.3 0.00 0.00 0.00 26 1014.6
20260504190540 81 89 0.9 4.3 0.00 0.00 0.00 28 1014.9
20260504190040 80 233 0.9 2.6 0.00 0.00 0.00 25 1014.9
20260504185541 81 248 0.9 3.5 0.00 0.00 0.00 25 1015.0
20260504185040 81 120 0.0 3.5 0.00 0.00 0.00 28 1015.0
20260504184540 79 223 0.9 2.6 0.00 0.00 0.00 23 1015.1